Showing default

COSMOS 2214, 22185

Orbit data source: Space-Track

COSMOS 2214, 22185 is a payload satellite owned by VKS (CIS) in LEO that was launched on Tue, 20 Oct 1992 UTC via a TSIKLON-3 launch vehicle from the Plesetsk Missile And Space Complex (PKMTR). Payloads include a variety of satellites, spacecraft, and rockets equipped with specific instruments for various scientific and technological missions. These include communications satellites like Starlink; space stations such as the ISS; scientific satellites like the Hubble; Earth observation satellites from companies like Planet Labs, Umbra, and HawkEye 360; GPS; miniature CubeSats for education and research; and military/defense satellites.

Loading next visibility...
COSMOS 2214 details
Identifier
22185, 1992-068D
Orbit
LEO
Last TLE update19 hours ago
Origin
Flag of CISVKS (CIS)
ManufacturerNPO PM
MissionDefense Communications
Bus & MotorSTRELA-3, Unknown motor
Mass225 kg wet, 225 kg dry
Launch date (UTC)
1992-10-20 (32 years ago)
Launch vehicle
TSIKLON-3
Launch site
Plesetsk Missile And Space Complex (PKMTR)
Object type
Payload
Rocket body
Debris
Shape & HBRCyl, 1.6 m
Radar Cross Section1.257 m², Large (>1 m²)

Expand to show TLE details & history

TLE from 19 hours ago
0 COSMOS 2214
1 22185U 92068D   25037.81219983  .00000022  00000-0  63756-4 0  9996
2 22185  82.5943 308.8830 0008198 186.9331 235.8180 12.61585401487186
Epoch: 2025-02-06T19:29Z
Definitive object data (Epoch: 2025-02-06T19:29:34.065Z)
Latitude61.84822°
Longitude-106.70533°
Altitude1,430.554 km
Speed7.15 km/s
True Right ascension21h 31m 28s
True Declination61° 43' 02"
Sunlit
Object was in daylight at TLE epoch
Visualization TLE readout
Latitude40.22467°
Longitude-114.913°
Altitude1,427.241 km
Speed7.149 km/s
Apparent Right ascension00h 12m 39s
Apparent Declination9° 02' 10"
Sunlit
Object is in daylight
Visualization observer readout
Local Sidereal Time16:35:54
Azimuth67.124° ENE
Elevation-12.098°
Doppler factor1
Orbital elements
Apogee altitude1,420.116 km
Perigee altitude1,407.341 km
Semi-major axis7,791.866 km
Eccentricity0.0008198
Inclination82.5943°
RAAN308.883°
Arg. of periapsis186.9331°
True anomaly235.74033°
Mean anomaly235.818°
Eccentric anomaly235.77916°
Mean motion3.15559 °/min
BSTAR0.000063756
Orbital period114.08 mins
Loading maneuver chart data...
Loading historical data...
Loading historical data...
Loading historical data...
Loading historical data...
Loading historical data...
Loading historical data...
Loading historical data...

COSMOS 2214 Visibility forecast

Observer location: undefined°, undefined

Span
Click to sort rows by Start time (UTC) header in descending order
Start Az.
Max El. time (UTC)
Max El. Az.
Max El.
End time (UTC)
End Az.
15 mins2025-02-07 18:05:32.039Z164.979° S2025-02-07 18:12:32.039Z96.454° ESE40.22°2025-02-07 18:20:32.039Z15.944° NNE
12 mins2025-02-07 20:02:32.039Z238.998° WSW2025-02-07 20:08:32.039Z293.938° NW26.059°2025-02-07 20:14:32.039Z344.785° N
10 mins2025-02-08 04:09:32.039Z29.01° NE2025-02-08 04:13:32.039Z63.892° ENE21.238°2025-02-08 04:19:32.039Z113.163° SE
15 mins2025-02-08 06:02:32.039Z347.513° N2025-02-08 06:09:32.039Z273.559° WNW43.686°2025-02-08 06:17:32.039Z184.377° SSW
|